| time (UTC) | temp C | wind direction | speed KPH | gust KPH | rain 1hr cm | rain 24hr cm | rain mn cm | humidity % | barometer mb |
| 20260505170107 | 24 | 154 | 0.0 | 19.3 | 0.00 | 0.00 | 0.00 | 51 | 999.9 |
| 20260505164542 | 24 | 184 | 1.6 | 12.9 | 0.00 | 0.00 | 0.00 | 53 | 1000.1 |
| 20260505163040 | 23 | 172 | 0.0 | 8.0 | 0.00 | 0.00 | 0.00 | 51 | 1000.4 |
| 20260505161533 | 23 | 322 | 1.6 | 12.9 | 0.00 | 0.00 | 0.00 | 53 | 1001.1 |
| 20260505153031 | 22 | 159 | 0.0 | 16.1 | 0.00 | 0.00 | 0.00 | 52 | 1001.7 |
| 20260505151520 | 21 | 354 | 0.0 | 16.1 | 0.00 | 0.00 | 0.00 | 56 | 1001.8 |
| 20260505124553 | 16 | 141 | 1.6 | 12.9 | 0.00 | 0.15 | 0.00 | 59 | 1003.2 |
| 20260505123108 | 16 | 143 | 0.0 | 19.3 | 0.00 | 0.15 | 0.00 | 61 | 1003.3 |
| 20260505121547 | 16 | 316 | 0.0 | 8.0 | 0.00 | 0.15 | 0.00 | 59 | 1003.2 |
| 20260505120047 | 15 | 304 | 0.0 | 6.4 | 0.00 | 0.15 | 0.00 | 61 | 1003.1 |
| 20260505114606 | 15 | 298 | 0.0 | 9.7 | 0.00 | 0.15 | 0.00 | 61 | 1003.1 |
| 20260505113044 | 15 | 322 | 0.0 | 14.5 | 0.00 | 0.15 | 0.00 | 60 | 1003.2 |
| 20260505111556 | 15 | 177 | 1.6 | 22.5 | 0.00 | 0.15 | 0.00 | 59 | 1003.2 |
| 20260505101536 | 14 | 166 | 0.0 | 1.6 | 0.00 | 0.15 | 0.00 | 63 | 1002.6 |
| 20260505100036 | 15 | 170 | 0.0 | 9.7 | 0.00 | 0.15 | 0.00 | 60 | 1002.8 |
| 20260505094536 | 14 | 337 | 0.0 | 12.9 | 0.00 | 0.15 | 0.00 | 62 | 1003.0 |
| 20260505093036 | 14 | 194 | 0.0 | 8.0 | 0.00 | 0.15 | 0.00 | 63 | 1003.0 |
| 20260505091535 | 14 | 168 | 0.0 | 3.2 | 0.00 | 0.15 | 0.00 | 62 | 1002.9 |
| 20260505090034 | 14 | 160 | 0.0 | 0.0 | 0.00 | 0.15 | 0.00 | 62 | 1003.0 |
| 20260505084530 | 14 | 231 | 0.0 | 8.0 | 0.00 | 0.15 | 0.00 | 60 | 1003.2 |
| 20260505083035 | 14 | 155 | 0.0 | 4.8 | 0.00 | 0.15 | 0.00 | 61 | 1003.1 |
| 20260505081533 | 15 | 347 | 0.0 | 6.4 | 0.00 | 0.15 | 0.00 | 59 | 1003.1 |
| 20260505080035 | 15 | 156 | 0.0 | 4.8 | 0.00 | 0.15 | 0.00 | 59 | 1003.1 |
| 20260505074525 | 14 | 311 | 0.0 | 4.8 | 0.00 | 0.15 | 0.00 | 59 | 1003.0 |
| 20260505073024 | 14 | 316 | 0.0 | 1.6 | 0.00 | 0.15 | 0.00 | 60 | 1002.9 |
| 20260505071523 | 14 | 156 | 0.0 | 6.4 | 0.00 | 0.15 | 0.00 | 60 | 1003.0 |
| 20260505070023 | 14 | 325 | 0.0 | 1.6 | 0.00 | 0.15 | 0.00 | 60 | 1003.1 |
| 20260505064523 | 14 | 159 | 0.0 | 0.0 | 0.00 | 0.15 | 0.00 | 59 | 1003.2 |
| 20260505063021 | 14 | 326 | 0.0 | 3.2 | 0.00 | 0.15 | 0.00 | 59 | 1003.1 |
| 20260505061530 | 14 | 172 | 0.0 | 4.8 | 0.00 | 0.15 | 0.00 | 58 | 1002.9 |
| 20260505060018 | 14 | 169 | 0.0 | 0.0 | 0.00 | 0.15 | 0.00 | 60 | 1003.0 |
| 20260505054514 | 13 | 165 | 0.0 | 4.8 | 0.00 | 0.15 | 0.00 | 60 | 1003.2 |
| 20260505053015 | 14 | 354 | 0.0 | 1.6 | 0.00 | 0.15 | 0.00 | 60 | 1003.3 |
| 20260505051513 | 13 | 332 | 0.0 | 0.0 | 0.00 | 0.15 | 0.00 | 62 | 1003.4 |
| 20260505041503 | 13 | 61 | 0.0 | 0.0 | 0.00 | 0.15 | 0.00 | 64 | 1003.6 |
| 20260505040104 | 12 | 155 | 0.0 | 0.0 | 0.00 | 0.15 | 0.15 | 67 | 1003.6 |
| 20260505034501 | 13 | 148 | 0.0 | 0.0 | 0.00 | 0.15 | 0.15 | 66 | 1003.5 |
| 20260505033100 | 12 | 159 | 0.0 | 0.0 | 0.00 | 0.15 | 0.15 | 67 | 1003.6 |
| 20260505031608 | 12 | 148 | 0.0 | 0.0 | 0.00 | 0.15 | 0.15 | 67 | 1003.7 |
| 20260505030059 | 12 | 148 | 0.0 | 0.0 | 0.00 | 0.15 | 0.15 | 68 | 1003.8 |
| 20260505024559 | 12 | 199 | 0.0 | 0.0 | 0.00 | 0.15 | 0.15 | 69 | 1003.9 |
| 20260505023103 | 11 | 161 | 0.0 | 0.0 | 0.00 | 0.15 | 0.15 | 76 | 1003.9 |
| 20260505021558 | 11 | 153 | 0.0 | 0.0 | 0.00 | 0.15 | 0.15 | 76 | 1004.0 |
| 20260505020057 | 11 | 157 | 0.0 | 0.0 | 0.00 | 0.15 | 0.15 | 74 | 1004.1 |
| 20260505014556 | 12 | 156 | 0.0 | 0.0 | 0.00 | 0.15 | 0.15 | 71 | 1004.0 |
| 20260505013059 | 12 | 157 | 0.0 | 0.0 | 0.00 | 0.15 | 0.15 | 70 | 1004.1 |
| 20260505011557 | 12 | 157 | 0.0 | 0.0 | 0.00 | 0.15 | 0.15 | 71 | 1004.0 |
| 20260505010054 | 13 | 184 | 0.0 | 0.0 | 0.00 | 0.15 | 0.15 | 66 | 1004.0 |
| 20260505004653 | 13 | 184 | 0.0 | 0.0 | 0.00 | 0.15 | 0.15 | 64 | 1004.1 |
| 20260505003056 | 14 | 184 | 0.0 | 0.0 | 0.00 | 0.15 | 0.15 | 65 | 1003.9 |
| 20260505001555 | 15 | 148 | 0.0 | 0.0 | 0.00 | 0.15 | 0.15 | 59 | 1003.7 |
| 20260505000055 | 16 | 148 | 0.0 | 0.0 | 0.00 | 0.15 | 0.15 | 54 | 1003.6 |
| 20260504234602 | 16 | 165 | 0.0 | 0.0 | 0.00 | 0.15 | 0.15 | 54 | 1003.5 |
| 20260504233049 | 17 | 153 | 0.0 | 0.0 | 0.00 | 0.15 | 0.15 | 53 | 1003.3 |
| 20260504231559 | 17 | 156 | 0.0 | 0.0 | 0.00 | 0.15 | 0.15 | 55 | 1003.0 |
| 20260504230048 | 17 | 158 | 0.0 | 0.0 | 0.00 | 0.15 | 0.15 | 55 | 1002.9 |
| 20260504224548 | 18 | 177 | 0.0 | 0.0 | 0.00 | 0.15 | 0.15 | 53 | 1002.8 |
| 20260504223046 | 18 | 173 | 0.0 | 4.8 | 0.00 | 0.15 | 0.15 | 51 | 1002.6 |
| 20260504221647 | 18 | 162 | 0.0 | 0.0 | 0.00 | 0.15 | 0.15 | 52 | 1002.7 |
| 20260504220044 | 18 | 32 | 0.0 | 0.0 | 0.00 | 0.15 | 0.15 | 51 | 1002.6 |
| 20260504214544 | 18 | 162 | 0.0 | 0.0 | 0.00 | 0.15 | 0.15 | 52 | 1002.7 |
| 20260504213042 | 18 | 160 | 0.0 | 0.0 | 0.00 | 0.15 | 0.15 | 55 | 1002.7 |
| 20260504211549 | 18 | 155 | 0.0 | 0.0 | 0.00 | 0.15 | 0.15 | 53 | 1002.7 |
| 20260504210100 | 18 | 347 | 0.0 | 3.2 | 0.00 | 0.15 | 0.15 | 52 | 1002.6 |
| 20260504204548 | 18 | 174 | 0.0 | 8.0 | 0.00 | 0.15 | 0.15 | 53 | 1002.7 |
| 20260504203044 | 18 | 179 | 0.0 | 8.0 | 0.00 | 0.15 | 0.15 | 49 | 1002.7 |
| 20260504201534 | 18 | 253 | 0.0 | 4.8 | 0.00 | 0.15 | 0.15 | 51 | 1003.0 |
| 20260504200032 | 19 | 29 | 0.0 | 3.2 | 0.00 | 0.15 | 0.15 | 48 | 1003.3 |
| 20260504194543 | 18 | 154 | 0.0 | 3.2 | 0.00 | 0.15 | 0.15 | 54 | 1003.4 |
| 20260504193029 | 18 | 166 | 0.0 | 12.9 | 0.00 | 0.15 | 0.15 | 53 | 1003.7 |
| 20260504191529 | 18 | 331 | 0.0 | 0.0 | 0.00 | 0.15 | 0.15 | 52 | 1003.9 |
| 20260504190021 | 17 | 181 | 0.0 | 3.2 | 0.00 | 0.15 | 0.15 | 53 | 1004.2 |
| 20260504184517 | 17 | 164 | 0.0 | 9.7 | 0.00 | 0.15 | 0.15 | 55 | 1004.5 |
| 20260504183014 | 17 | 22 | 1.6 | 12.9 | 0.00 | 0.15 | 0.15 | 55 | 1004.7 |
| 20260504181510 | 16 | 168 | 0.0 | 4.8 | 0.00 | 0.15 | 0.15 | 58 | 1004.9 |
| 20260504180013 | 16 | 333 | 0.0 | 9.7 | 0.00 | 0.15 | 0.15 | 60 | 1005.1 |
| 20260504174505 | 15 | 153 | 0.0 | 6.4 | 0.00 | 0.15 | 0.15 | 59 | 1005.3 |
| 20260504173006 | 13 | 20 | 0.0 | 3.2 | 0.00 | 0.15 | 0.15 | 63 | 1005.8 |
| 20260504171501 | 13 | 160 | 0.0 | 9.7 | 0.00 | 0.15 | 0.15 | 64 | 1005.8 |